Time,TemperatureF,DewpointF,PressureIn,WindDirection,WindDirectionDegrees,WindSpeedMPH,WindSpeedGustMPH,Humidity,HourlyPrecipIn,Conditions,Clouds,dailyrainin,SoftwareType,DateUTC
2013-08-22 00:05:00,59.4,56.0,29.93,West,264,4.0,6.0,89,0.00,,,0.00,weatherlink.com 1.10,2013-08-22 07:05:00,
2013-08-22 00:20:00,59.4,56.0,29.93,WSW,242,3.0,5.0,88,0.00,,,0.00,weatherlink.com 1.10,2013-08-22 07:20:00,
2013-08-22 00:35:00,59.1,56.0,29.93,SW,226,4.0,6.0,89,0.00,,,0.00,weatherlink.com 1.10,2013-08-22 07:35:00,
2013-08-22 00:50:00,59.1,56.0,29.93,West,273,2.0,7.0,89,0.00,,,0.00,weatherlink.com 1.10,2013-08-22 07:50:00,
2013-08-22 01:05:00,59.2,56.0,29.93,WNW,288,1.0,6.0,88,0.00,,,0.00,weatherlink.com 1.10,2013-08-22 08:05:00,
2013-08-22 01:20:00,59.0,56.0,29.93,WNW,293,0.0,7.0,89,0.00,,,0.00,weatherlink.com 1.10,2013-08-22 08:20:00,
2013-08-22 01:35:00,58.8,56.0,29.93,WSW,238,4.0,8.0,90,0.00,,,0.00,weatherlink.com 1.10,2013-08-22 08:35:00,
2013-08-22 01:50:00,58.2,55.0,29.93,West,261,4.0,9.0,90,0.00,,,0.00,weatherlink.com 1.10,2013-08-22 08:50:00,
2013-08-22 02:05:00,58.2,56.0,29.93,SW,221,7.0,9.0,91,0.00,,,0.00,weatherlink.com 1.10,2013-08-22 09:05:00,
2013-08-22 02:20:00,58.2,55.0,29.93,West,263,4.0,8.0,90,0.00,,,0.00,weatherlink.com 1.10,2013-08-22 09:20:00,
2013-08-22 02:35:00,57.6,55.0,29.94,WNW,283,5.0,10.0,91,0.00,,,0.00,weatherlink.com 1.10,2013-08-22 09:35:00,
2013-08-22 02:50:00,57.8,56.0,29.94,WSW,256,5.0,9.0,92,0.00,,,0.00,weatherlink.com 1.10,2013-08-22 09:50:00,
2013-08-22 03:05:00,57.4,55.0,29.94,WNW,288,3.0,8.0,91,0.00,,,0.00,weatherlink.com 1.10,2013-08-22 10:05:00,
2013-08-22 03:20:00,57.3,55.0,29.93,WNW,284,3.0,8.0,92,0.00,,,0.00,weatherlink.com 1.10,2013-08-22 10:20:00,
2013-08-22 03:35:00,57.4,55.0,29.94,West,278,6.0,9.0,91,0.00,,,0.00,weatherlink.com 1.10,2013-08-22 10:35:00,
2013-08-22 05:35:00,57.0,55.0,29.93,WSW,238,4.0,8.0,93,0.00,,,0.00,weatherlink.com 1.10,2013-08-22 12:35:00,
2013-08-22 05:50:00,56.8,55.0,29.93,WSW,238,3.0,9.0,93,0.00,,,0.00,weatherlink.com 1.10,2013-08-22 12:50:00,
2013-08-22 06:05:00,56.9,55.0,29.93,West,276,4.0,6.0,92,0.00,,,0.00,weatherlink.com 1.10,2013-08-22 13:05:00,
2013-08-22 06:20:00,56.6,54.0,29.93,WNW,283,1.0,7.0,92,0.00,,,0.00,weatherlink.com 1.10,2013-08-22 13:20:00,
2013-08-22 06:35:00,56.6,54.0,29.94,WNW,293,3.0,5.0,92,0.00,,,0.00,weatherlink.com 1.10,2013-08-22 13:35:00,
2013-08-22 06:50:00,56.9,55.0,29.95,SW,219,6.0,6.0,93,0.00,,,0.00,weatherlink.com 1.10,2013-08-22 13:50:00,
2013-08-22 07:05:00,57.4,55.0,29.95,WNW,302,2.0,5.0,91,0.00,,,0.00,weatherlink.com 1.10,2013-08-22 14:05:00,
2013-08-22 07:20:00,58.0,55.0,29.96,WSW,253,4.0,7.0,90,0.00,,,0.00,weatherlink.com 1.10,2013-08-22 14:20:00,
2013-08-22 07:35:00,58.0,55.0,29.96,WSW,255,4.0,7.0,89,0.00,,,0.00,weatherlink.com 1.10,2013-08-22 14:35:00,
2013-08-22 07:50:00,58.1,55.0,29.97,SW,218,5.0,6.0,89,0.00,,,0.00,weatherlink.com 1.10,2013-08-22 14:50:00,
2013-08-22 08:05:00,58.0,55.0,29.97,WSW,257,1.0,9.0,89,0.00,,,0.00,weatherlink.com 1.10,2013-08-22 15:05:00,
2013-08-22 08:20:00,58.1,55.0,29.97,West,274,3.0,6.0,89,0.00,,,0.00,weatherlink.com 1.10,2013-08-22 15:20:00,
2013-08-22 08:35:00,58.5,55.0,29.98,WSW,245,7.0,9.0,89,0.00,,,0.00,weatherlink.com 1.10,2013-08-22 15:35:00,
2013-08-22 08:51:00,58.9,55.0,29.98,West,269,6.0,9.0,87,0.00,,,0.00,weatherlink.com 1.10,2013-08-22 15:51:00,
2013-08-22 09:06:00,58.8,55.0,29.98,WSW,257,5.0,9.0,88,0.00,,,0.00,weatherlink.com 1.10,2013-08-22 16:06:00,
2013-08-22 09:21:00,59.2,55.0,29.98,West,269,4.0,8.0,87,0.00,,,0.00,weatherlink.com 1.10,2013-08-22 16:21:00,
2013-08-22 09:36:00,59.5,56.0,29.98,WNW,290,3.0,8.0,88,0.00,,,0.00,weatherlink.com 1.10,2013-08-22 16:36:00,
2013-08-22 09:51:00,59.1,56.0,29.99,WNW,282,2.0,8.0,88,0.00,,,0.00,weatherlink.com 1.10,2013-08-22 16:51:00,
2013-08-22 10:06:00,59.8,56.0,29.99,NW,309,2.0,10.0,88,0.00,,,0.00,weatherlink.com 1.10,2013-08-22 17:06:00,
2013-08-22 10:21:00,59.7,55.0,29.99,West,276,4.0,9.0,85,0.00,,,0.00,weatherlink.com 1.10,2013-08-22 17:21:00,
2013-08-22 10:36:00,59.5,55.0,29.99,West,269,4.0,9.0,86,0.00,,,0.00,weatherlink.com 1.10,2013-08-22 17:36:00,
2013-08-22 10:51:00,59.9,56.0,29.99,West,271,3.0,7.0,86,0.00,,,0.00,weatherlink.com 1.10,2013-08-22 17:51:00,
2013-08-22 11:06:00,59.8,56.0,29.99,West,276,4.0,8.0,87,0.00,,,0.00,weatherlink.com 1.10,2013-08-22 18:06:00,
2013-08-22 11:21:00,60.3,56.0,29.99,West,281,2.0,6.0,86,0.00,,,0.00,weatherlink.com 1.10,2013-08-22 18:21:00,
2013-08-22 11:36:00,60.9,56.0,29.99,NW,312,4.0,8.0,84,0.00,,,0.00,weatherlink.com 1.10,2013-08-22 18:36:00,
2013-08-22 11:51:00,60.8,56.0,29.99,West,262,4.0,9.0,85,0.00,,,0.00,weatherlink.com 1.10,2013-08-22 18:51:00,
2013-08-22 12:06:00,60.9,57.0,29.98,WSW,245,4.0,10.0,86,0.00,,,0.00,weatherlink.com 1.10,2013-08-22 19:06:00,
2013-08-22 12:21:00,61.1,56.0,29.98,WNW,291,5.0,10.0,84,0.00,,,0.00,weatherlink.com 1.10,2013-08-22 19:21:00,
2013-08-22 12:36:00,61.1,56.0,29.98,NW,310,6.0,10.0,84,0.00,,,0.00,weatherlink.com 1.10,2013-08-22 19:36:00,
2013-08-22 12:51:00,61.4,57.0,29.98,WNW,297,6.0,10.0,85,0.00,,,0.00,weatherlink.com 1.10,2013-08-22 19:51:00,
2013-08-22 13:06:00,61.6,57.0,29.98,West,259,6.0,9.0,85,0.00,,,0.00,weatherlink.com 1.10,2013-08-22 20:06:00,
2013-08-22 13:21:00,62.2,57.0,29.97,WNW,288,7.0,12.0,82,0.00,,,0.00,weatherlink.com 1.10,2013-08-22 20:21:00,
2013-08-22 13:36:00,62.4,56.0,29.97,WNW,291,8.0,12.0,80,0.00,,,0.00,weatherlink.com 1.10,2013-08-22 20:36:00,
2013-08-22 13:51:00,62.2,56.0,29.97,WSW,256,4.0,13.0,80,0.00,,,0.00,weatherlink.com 1.10,2013-08-22 20:51:00,
2013-08-22 14:06:00,62.1,57.0,29.97,West,266,6.0,13.0,83,0.00,,,0.00,weatherlink.com 1.10,2013-08-22 21:06:00,
2013-08-22 14:21:00,62.0,56.0,29.97,NW,321,10.0,14.0,81,0.00,,,0.00,weatherlink.com 1.10,2013-08-22 21:21:00,
2013-08-22 14:36:00,62.4,57.0,29.97,West,268,9.0,16.0,82,0.00,,,0.00,weatherlink.com 1.10,2013-08-22 21:36:00,
2013-08-22 14:51:00,62.8,57.0,29.96,West,276,7.0,13.0,81,0.00,,,0.00,weatherlink.com 1.10,2013-08-22 21:51:00,
2013-08-22 15:06:00,62.7,56.0,29.96,West,271,6.0,16.0,80,0.00,,,0.00,weatherlink.com 1.10,2013-08-22 22:06:00,
2013-08-22 15:21:00,63.1,57.0,29.96,West,266,13.0,15.0,81,0.00,,,0.00,weatherlink.com 1.10,2013-08-22 22:21:00,
2013-08-22 15:36:00,62.4,57.0,29.95,WNW,297,7.0,15.0,82,0.00,,,0.00,weatherlink.com 1.10,2013-08-22 22:36:00,
2013-08-22 15:51:00,62.6,57.0,29.95,NW,312,6.0,14.0,81,0.00,,,0.00,weatherlink.com 1.10,2013-08-22 22:51:00,
2013-08-22 16:06:00,62.6,57.0,29.95,WSW,257,9.0,14.0,81,0.00,,,0.00,weatherlink.com 1.10,2013-08-22 23:06:00,
2013-08-22 16:21:00,62.2,57.0,29.94,West,262,9.0,15.0,83,0.00,,,0.00,weatherlink.com 1.10,2013-08-22 23:21:00,
2013-08-22 16:36:00,62.0,56.0,29.94,West,281,12.0,16.0,82,0.00,,,0.00,weatherlink.com 1.10,2013-08-22 23:36:00,
2013-08-22 16:51:00,61.5,56.0,29.94,West,276,11.0,13.0,82,0.00,,,0.00,weatherlink.com 1.10,2013-08-22 23:51:00,
2013-08-22 17:06:00,61.5,56.0,29.94,WSW,257,12.0,15.0,83,0.00,,,0.00,weatherlink.com 1.10,2013-08-23 00:06:00,
2013-08-22 17:21:00,61.2,56.0,29.94,West,274,9.0,12.0,84,0.00,,,0.00,weatherlink.com 1.10,2013-08-23 00:21:00,
2013-08-22 17:36:00,60.9,57.0,29.94,West,267,11.0,15.0,86,0.00,,,0.00,weatherlink.com 1.10,2013-08-23 00:36:00,
2013-08-22 17:51:00,60.5,56.0,29.93,WNW,283,8.0,14.0,85,0.00,,,0.00,weatherlink.com 1.10,2013-08-23 00:51:00,
2013-08-22 18:06:00,60.4,56.0,29.93,West,280,8.0,13.0,85,0.00,,,0.00,weatherlink.com 1.10,2013-08-23 01:06:00,
2013-08-22 18:21:00,60.9,57.0,29.93,NW,307,7.0,13.0,86,0.00,,,0.00,weatherlink.com 1.10,2013-08-23 01:21:00,
2013-08-22 18:36:00,60.1,56.0,29.92,West,267,10.0,13.0,87,0.00,,,0.00,weatherlink.com 1.10,2013-08-23 01:36:00,
2013-08-22 18:51:00,60.1,56.0,29.92,WNW,297,7.0,12.0,87,0.00,,,0.00,weatherlink.com 1.10,2013-08-23 01:51:00,
2013-08-22 19:06:00,59.7,56.0,29.92,NW,307,4.0,11.0,86,0.00,,,0.00,weatherlink.com 1.10,2013-08-23 02:06:00,
2013-08-22 19:21:00,59.7,56.0,29.92,West,281,6.0,10.0,87,0.00,,,0.00,weatherlink.com 1.10,2013-08-23 02:21:00,
2013-08-22 19:36:00,59.5,55.0,29.92,NW,320,5.0,11.0,86,0.00,,,0.00,weatherlink.com 1.10,2013-08-23 02:36:00,
2013-08-22 19:51:00,59.4,55.0,29.92,WNW,285,4.0,11.0,86,0.00,,,0.00,weatherlink.com 1.10,2013-08-23 02:51:00,
2013-08-22 20:06:00,59.4,56.0,29.92,West,276,5.0,13.0,87,0.00,,,0.00,weatherlink.com 1.10,2013-08-23 03:06:00,
2013-08-22 20:21:00,59.7,56.0,29.92,West,281,5.0,11.0,88,0.00,,,0.00,weatherlink.com 1.10,2013-08-23 03:21:00,
2013-08-22 20:36:00,59.6,56.0,29.93,West,281,6.0,13.0,88,0.00,,,0.00,weatherlink.com 1.10,2013-08-23 03:36:00,
2013-08-22 20:51:00,59.4,56.0,29.93,West,270,7.0,11.0,88,0.00,,,0.00,weatherlink.com 1.10,2013-08-23 03:51:00,
2013-08-22 21:06:00,59.5,56.0,29.93,West,276,5.0,12.0,87,0.00,,,0.00,weatherlink.com 1.10,2013-08-23 04:06:00,
2013-08-22 21:21:00,59.3,56.0,29.93,West,280,4.0,12.0,88,0.00,,,0.00,weatherlink.com 1.10,2013-08-23 04:21:00,
2013-08-22 21:36:00,59.4,56.0,29.93,WNW,284,5.0,9.0,88,0.00,,,0.00,weatherlink.com 1.10,2013-08-23 04:36:00,
2013-08-22 21:51:00,59.3,56.0,29.93,West,278,7.0,9.0,88,0.00,,,0.00,weatherlink.com 1.10,2013-08-23 04:51:00,
2013-08-22 22:06:00,58.7,56.0,29.93,West,274,5.0,10.0,89,0.00,,,0.00,weatherlink.com 1.10,2013-08-23 05:06:00,
2013-08-22 22:21:00,59.1,56.0,29.93,WNW,297,2.0,12.0,89,0.00,,,0.00,weatherlink.com 1.10,2013-08-23 05:21:00,
2013-08-22 22:36:00,59.5,57.0,29.93,WSW,253,4.0,7.0,90,0.00,,,0.00,weatherlink.com 1.10,2013-08-23 05:36:00,
2013-08-22 22:51:00,59.6,56.0,29.93,West,276,4.0,7.0,89,0.00,,,0.00,weatherlink.com 1.10,2013-08-23 05:51:00,
2013-08-22 23:06:00,59.2,56.0,29.93,West,264,5.0,9.0,89,0.00,,,0.00,weatherlink.com 1.10,2013-08-23 06:06:00,
2013-08-22 23:21:00,59.1,56.0,29.93,WSW,255,4.0,10.0,90,0.00,,,0.00,weatherlink.com 1.10,2013-08-23 06:21:00,
2013-08-22 23:36:00,58.9,56.0,29.94,West,278,8.0,9.0,89,0.00,,,0.00,weatherlink.com 1.10,2013-08-23 06:36:00,
2013-08-22 23:51:00,59.1,56.0,29.93,WNW,300,7.0,11.0,89,0.00,,,0.00,weatherlink.com 1.10,2013-08-23 06:51:00,